Satellite: AUBIESAT Catalog number: 37854 Epoch time: 12311.89004718 Element set: 333 Inclination: 101.7065 deg RA of node: 057.5640 deg Eccentricity: 0.0242956 Arg of perigee: 302.5715 deg Mean anomaly: 055.2199 deg Mean motion: 14.81759381 rev/day Decay rate: 3.207e-05 rev/day^2 Epoch rev: 5551 Checksum: 293
Satellite: HRBE Catalog number: 37855 Epoch time: 12311.31263510 Element set: 329 Inclination: 101.7083 deg RA of node: 056.6279 deg Eccentricity: 0.0244126 Arg of perigee: 304.5621 deg Mean anomaly: 053.2753 deg Mean motion: 14.81545020 rev/day Decay rate: 3.267e-05 rev/day^2 Epoch rev: 5542 Checksum: 263
Satellite: RS-39 Catalog number: 38051 Epoch time: 12312.14142431 Element set: 866 Inclination: 051.6354 deg RA of node: 197.3908 deg Eccentricity: 0.0014054 Arg of perigee: 180.8857 deg Mean anomaly: 315.1395 deg Mean motion: 15.27071941 rev/day Decay rate: 7.572e-05 rev/day^2 Epoch rev: 4379 Checksum: 307
Satellite: E-STAR Catalog number: 38079 Epoch time: 12312.47144021 Element set: 626 Inclination: 069.4798 deg RA of node: 345.7922 deg Eccentricity: 0.0695173 Arg of perigee: 065.4411 deg Mean anomaly: 301.7606 deg Mean motion: 14.25710734 rev/day Decay rate: 2.8091e-04 rev/day^2 Epoch rev: 3792 Checksum: 306
Satellite: GOLIAT Catalog number: 38085 Epoch time: 12313.20531625 Element set: 597 Inclination: 069.4842 deg RA of node: 344.9184 deg Eccentricity: 0.0700929 Arg of perigee: 065.0063 deg Mean anomaly: 302.2699 deg Mean motion: 14.24486449 rev/day Decay rate: 2.8487e-04 rev/day^2 Epoch rev: 3800 Checksum: 316
Satellite: HORYU-2 Catalog number: 38340 Epoch time: 12313.86557007 Element set: 229 Inclination: 098.1892 deg RA of node: 254.0402 deg Eccentricity: 0.0011797 Arg of perigee: 230.0480 deg Mean anomaly: 129.9692 deg Mean motion: 14.70360903 rev/day Decay rate: 1.022e-05 rev/day^2 Epoch rev: 2573 Checksum: 279
Satellite: RS-40 Catalog number: 38736 Epoch time: 12312.05587389 Element set: 99 Inclination: 082.4747 deg RA of node: 293.6265 deg Eccentricity: 0.0020158 Arg of perigee: 092.0914 deg Mean anomaly: 268.2470 deg Mean motion: 12.42647329 rev/day Decay rate: 1.0e-07 rev/day^2 Epoch rev: 1265 Checksum: 304
Satellite: PROITERES Catalog number: 38756 Epoch time: 12312.21829737 Element set: 204 Inclination: 098.2792 deg RA of node: 018.9479 deg Eccentricity: 0.0013834 Arg of perigee: 093.0273 deg Mean anomaly: 267.2531 deg Mean motion: 14.73955510 rev/day Decay rate: 5.87e-06 rev/day^2 Epoch rev: 869 Checksum: 319
Satellite: AENEAS Catalog number: 38760 Epoch time: 12313.32286052 Element set: 0060 Inclination: 064.6723 deg RA of node: 230.8256 deg Eccentricity: 0.0217932 Arg of perigee: 274.0125 deg Mean anomaly: 083.6084 deg Mean motion: 14.79511713 rev/day Decay rate: 3.751e-05 rev/day^2 Epoch rev: 00818 Checksum: 276
Satellite: CSSWE-D Catalog number: 38761 Epoch time: 12313.32054815 Element set: 0057 Inclination: 064.6729 deg RA of node: 230.8177 deg Eccentricity: 0.0219219 Arg of perigee: 273.9941 deg Mean anomaly: 083.6089 deg Mean motion: 14.79444755 rev/day Decay rate: 2.311e-05 rev/day^2 Epoch rev: 00818 Checksum: 313
Satellite: CXBN-E Catalog number: 38762 Epoch time: 12313.25074991 Element set: 0056 Inclination: 064.6734 deg RA of node: 231.0189 deg Eccentricity: 0.0219092 Arg of perigee: 273.8092 deg Mean anomaly: 083.7989 deg Mean motion: 14.79537100 rev/day Decay rate: 2.743e-05 rev/day^2 Epoch rev: 00817 Checksum: 314
Satellite: OBJECT F Catalog number: 38763 Epoch time: 12313.31846775 Element set: 0053 Inclination: 064.6727 deg RA of node: 230.8061 deg Eccentricity: 0.0219458 Arg of perigee: 274.1373 deg Mean anomaly: 083.4659 deg Mean motion: 14.79488308 rev/day Decay rate: 2.172e-05 rev/day^2 Epoch rev: 00802 Checksum: 311
Satellite: CINEMA-G Catalog number: 38764 Epoch time: 12313.31789208 Element set: 0053 Inclination: 064.6720 deg RA of node: 230.8013 deg Eccentricity: 0.0219133 Arg of perigee: 274.0444 deg Mean anomaly: 083.5631 deg Mean motion: 14.79516379 rev/day Decay rate: 2.385e-05 rev/day^2 Epoch rev: 00818 Checksum: 292
Satellite: CP5 Catalog number: 38765 Epoch time: 12313.31584741 Element set: 0052 Inclination: 064.6722 deg RA of node: 230.7871 deg Eccentricity: 0.0218367 Arg of perigee: 273.8147 deg Mean anomaly: 083.8000 deg Mean motion: 14.79617183 rev/day Decay rate: 2.718e-05 rev/day^2 Epoch rev: 00818 Checksum: 307
Satellite: RAIKO Catalog number: 38852 Epoch time: 12311.97518919 Element set: 32 Inclination: 051.6476 deg RA of node: 131.7799 deg Eccentricity: 0.0018068 Arg of perigee: 243.9762 deg Mean anomaly: 115.9343 deg Mean motion: 15.53527951 rev/day Decay rate: 2.4314e-04 rev/day^2 Epoch rev: 511 Checksum: 307
Satellite: FITSAT 1 Catalog number: 38853 Epoch time: 12311.77755295 Element set: 32 Inclination: 051.6478 deg RA of node: 132.7108 deg Eccentricity: 0.0014509 Arg of perigee: 255.3050 deg Mean anomaly: 104.6313 deg Mean motion: 15.53945594 rev/day Decay rate: 2.8287e-04 rev/day^2 Epoch rev: 513 Checksum: 291
Satellite: TechEdSat Catalog number: 38854 Epoch time: 12311.57496445 Element set: 36 Inclination: 051.6471 deg RA of node: 133.6083 deg Eccentricity: 0.0014316 Arg of perigee: 252.8653 deg Mean anomaly: 107.0183 deg Mean motion: 15.54829764 rev/day Decay rate: 3.9244e-04 rev/day^2 Epoch rev: 510 Checksum: 289
Satellite: F 1 Catalog number: 38855 Epoch time: 12311.76929167 Element set: 37 Inclination: 051.6486 deg RA of node: 132.6587 deg Eccentricity: 0.0014824 Arg of perigee: 249.4516 deg Mean anomaly: 110.4873 deg Mean motion: 15.54719119 rev/day Decay rate: 3.7541e-04 rev/day^2 Epoch rev: 502 Checksum: 308
Satellite: WeWish Catalog number: 38856 Epoch time: 12311.94585594 Element set: 47 Inclination: 051.6437 deg RA of node: 131.5835 deg Eccentricity: 0.0019121 Arg of perigee: 247.2156 deg Mean anomaly: 112.6808 deg Mean motion: 15.56350072 rev/day Decay rate: 6.2938e-04 rev/day^2 Epoch rev: 505 Checksum: 296
/EX
participants (1)
-
Ray Hoad